Weather in Matveevka

Russia / Khabarovsk Krai     48°32′39″N   135°10′57″E
temp.,
°C
wind,
m/s
gust,
m/s
humid.,
%
clouds,
%
prec.,
mm/h
press.,
hPa
HPBL,
m
2 march, tue
tue201:00−22wsw47840 0.0 102997
04:00−22wsw59830 0.0 1029140
07:00−23sw57840 0.0 1029123
10:00−19w511740 0.0 1029513
13:00−16w610720 0.0 1028699
16:00−14w610700 0.0 1027904
19:00−19wsw47810 0.0 1029106
22:00−20wsw34840 0.0 103055
3 march, wed
wed301:00−22sw33860 0.0 103035
04:00−23ssw23880 0.0 103021
07:00−23s238925 0.0 103026
10:00−17sse478162 0.0 1029227
13:00−12s477685 0.0 1026421
16:00−8s487391 0.0 1022825
19:00−11wsw1283100 0.0 102021
22:00−12sse119595 0.1 102021
4 march, thu
thu401:00−10ese1196100 0.3 101721
04:00−8e0197100 0.9 101621
07:00−9ssw119793 0.3 101540
10:00−7wnw229592 0.4 1015133
13:00−3wsw239494 0.1 1014321
16:00−1wsw249897 0.4 1012299
19:000sw31099100 0.8 1010493
22:00−1w3898100 2.1 1009313
5 march, fri
fri501:00−3w51297100 1.9 1008446
04:00−9w6148782 2.0 1011411
07:00−13w714810 0.0 1016389
10:00−14w813746 0.0 1020462
13:00−13w811692 0.0 1021741
16:00−14w810701 0.0 10221119
19:00−18w613780 0.0 1024389
22:00−21w816750 0.0 1027591
6 march, sat
sat601:00−22w816770 0.0 1028683
04:00−23wsw916760 0.0 1029723
07:00−23w715790 0.0 1030596
10:00−21w813760 0.0 1031824
13:00−18w711750 0.0 1031983
16:00−15w711735 0.0 10301042
19:00−16wsw512780 0.0 1030250
22:00−17w614800 0.0 1030336